This is the latest recevied weather packets stored in our database for station/object VE9LJW. If no packets are shown the sender has not sent any weather packets the latest 10 day(s).
| Time | Temp. | Humidity | Pressure | Rain* | Wind** | Luminosity | Snow |
|---|---|---|---|---|---|---|---|
| 1777591369 | 12.78° C | 93% | 1006.8 hPa | 1.27 mm | - | 0 W/m² | - |
| 1777591065 | 12.78° C | 92% | 1006.8 hPa | 0.51 mm | - | 0 W/m² | - |
| 1777590761 | 12.78° C | 91% | 1006.9 hPa | 1.27 mm | - | 0 W/m² | - |
| 1777590456 | 12.78° C | 92% | 1006.8 hPa | 1.27 mm | - | 1 W/m² | - |
| 1777590154 | 13.33° C | 92% | 1006.8 hPa | 1.27 mm | - | 0 W/m² | - |
| 1777589850 | 13.33° C | 90% | 1007 hPa | 1.27 mm | - | 0 W/m² | - |
| 1777589545 | 13.33° C | 90% | 1007.2 hPa | 0.51 mm | - | 0 W/m² | - |
| 1777589244 | 13.33° C | 89% | 1007.1 hPa | 0.51 mm | - | 2 W/m² | - |
| 1777588941 | 13.33° C | 88% | 1007.2 hPa | 0.51 mm | - | 5 W/m² | - |
| 1777588636 | 13.89° C | 86% | 1007.3 hPa | 0.51 mm | - | 7 W/m² | - |
| 1777588327 | 13.89° C | 85% | 1007.2 hPa | 0.51 mm | - | 9 W/m² | - |
| 1777588023 | 13.89° C | 83% | 1007.3 hPa | 0 mm | - | 10 W/m² | - |
| 1777587718 | 14.44° C | 82% | 1007.2 hPa | 0.51 mm | - | 12 W/m² | - |
| 1777587413 | 14.44° C | 81% | 1007.1 hPa | 0.51 mm | - | 16 W/m² | - |
| 1777587109 | 14.44° C | 81% | 1007.2 hPa | 0 mm | - | 18 W/m² | - |
| 1777586805 | 14.44° C | 79% | 1007.2 hPa | 0 mm | - | 20 W/m² | - |
| 1777586500 | 14.44° C | 79% | 1007.3 hPa | 0 mm | - | 23 W/m² | - |
| 1777586196 | 14.44° C | 81% | 1007.4 hPa | 0 mm | - | 31 W/m² | - |
| 1777585894 | 14.44° C | 79% | 1007.5 hPa | 0 mm | - | 28 W/m² | - |
| 1777585588 | 14.44° C | 78% | 1007.5 hPa | 0 mm | - | 28 W/m² | - |
| 1777585284 | 15° C | 78% | 1007.5 hPa | 0 mm | - | 32 W/m² | - |
| 1777584979 | 15° C | 78% | 1007.3 hPa | 0 mm | - | 32 W/m² | - |
| 1777584676 | 15° C | 77% | 1007.6 hPa | 0 mm | - | 32 W/m² | - |
| 1777584373 | 15° C | 76% | 1007.8 hPa | 0 mm | - | 38 W/m² | - |
| 1777584070 | 15° C | 76% | 1007.6 hPa | 0 mm | - | 39 W/m² | - |
* Rain latest hour (hover to see other rain measurements)
** Current wind speed in m/s (hover to see current wind gust speed)